Regional Weather Roundup
Issued by NWS

Home | Current Version | Previous Version | Text Only | Print | Product List | Glossary Off
Versions: 1 2 3 4 5 6 7 8 9 10 11 12 13 14 15 16 17 18 19 20 21 22 23 24 25 26 27 28 29 30 31 32 33 34 35 36 37 38 39 40 41 42 43 44 45 46 47 48 49 50

000
ASUS43 KBIS 281610
RWRND

NORTH DAKOTA REGIONAL WEATHER ROUNDUP
NATIONAL WEATHER SERVICE BISMARCK ND
1100 AM CDT THU AUG 28 2014

NOTE: "FAIR" INDICATES FEW OR NO CLOUDS BELOW 12,000 FEET WITH NO
SIGNIFICANT WEATHER AND/OR OBSTRUCTIONS TO VISIBILITY.


NDZ001>003-009>011-017-281700-
NORTHWEST NORTH DAKOTA

CITY           SKY/WX    TMP DP  RH WIND       PRES   REMARKS
WILLISTON      NOT AVBL
MINOT          MOSUNNY   75  63  66 S8        29.87F
MINOT AFB      MOSUNNY   75  66  73 SW6       29.87S
$$

NDZ018>021-031>035-040>046-281700-
SOUTHWEST NORTH DAKOTA

CITY           SKY/WX    TMP DP  RH WIND       PRES   REMARKS
BISMARCK       CLOUDY    69  64  84 CALM      29.94F
DICKINSON      MOSUNNY   76  58  53 SW6       29.92F
GARRISON         N/A     65  62  90 S6        29.92S
HETTINGER ARPT CLOUDY    63  61  93 SE6       29.98R
$$

NDZ004>008-012>016-024-026-027-054-281700-
NORTHEAST NORTH DAKOTA

CITY           SKY/WX    TMP DP  RH WIND       PRES   REMARKS
GRAND FORKS    CLOUDY    70  63  78 S15       29.94F
GRND FRKS AFB  MOSUNNY   71  67  89 S13       29.95F
DEVILS LAKE    CLOUDY    70  61  73 SW10      29.92S
$$

NDZ022-023-025-028>030-036>039-047>053-281700-
SOUTHEAST NORTH DAKOTA

CITY           SKY/WX    TMP DP  RH WIND       PRES   REMARKS
FARGO          CLOUDY    68  61  78 SE13      29.97F
JAMESTOWN      CLOUDY    70  65  84 S9        29.94F
$$




USA.gov is the U.S. government's official web portal to all federal, state and local government web resources and services.